Torna al catalogo

STARLINK-36058

AttivoComunicazioniVLEO
NORAD 66591·PAYLOAD·🇺🇸 United States

Lanciato Nov 22, 2025 da Cape Canaveral Space Force Station

Loading…

Prossimi Passaggi (prossime 24 ore)

TLE

AggiornatoSource: CelesTrak SupGP

Epoca: Sep 15, 2026, 03:32 UTC

1 66591C 25270D   26258.14770833 -.00032102  00000+0 -11633-2 0  2582
2 66591  43.0009  66.2794 0001621 273.9736 326.5410 15.27578323    11

Traccia STARLINK-36058 in tempo reale con AllMySat

Download on the App Store